| time (UTC) | temp F | wind direction | speed knots | gust knots | rain 1hr in | rain 24hr in | rain mn in | humidity % | barometer mb |
| 20260510153517 | 84 | 157 | 3.5 | 10.4 | 0.00 | 0.00 | 0.00 | 79 | 1012.9 |
| 20260510153042 | 84 | 79 | 5.2 | 10.4 | 0.00 | 0.00 | 0.00 | 80 | 1012.8 |
| 20260510152520 | 84 | 78 | 7.8 | 10.4 | 0.00 | 0.00 | 0.00 | 82 | 1012.8 |
| 20260510152019 | 83 | 111 | 5.2 | 10.4 | 0.00 | 0.00 | 0.00 | 83 | 1012.7 |
| 20260510151537 | 82 | 167 | 5.2 | 10.4 | 0.00 | 0.00 | 0.00 | 81 | 1012.8 |
| 20260510151019 | 82 | 131 | 6.1 | 9.6 | 0.00 | 0.00 | 0.00 | 81 | 1012.8 |
| 20260510150519 | 83 | 155 | 5.2 | 8.7 | 0.00 | 0.00 | 0.00 | 82 | 1012.7 |
| 20260510150035 | 83 | 161 | 6.1 | 9.6 | 0.00 | 0.00 | 0.00 | 81 | 1012.6 |
| 20260510145520 | 83 | 145 | 6.1 | 9.6 | 0.00 | 0.00 | 0.00 | 79 | 1012.5 |
| 20260510145018 | 84 | 132 | 6.1 | 9.6 | 0.00 | 0.00 | 0.00 | 80 | 1012.4 |
| 20260510144539 | 84 | 150 | 6.1 | 10.4 | 0.00 | 0.00 | 0.00 | 81 | 1012.3 |
| 20260510144018 | 83 | 116 | 6.1 | 10.4 | 0.00 | 0.00 | 0.00 | 82 | 1012.2 |
| 20260510143522 | 82 | 127 | 6.1 | 9.6 | 0.00 | 0.00 | 0.00 | 85 | 1012.2 |
| 20260510143040 | 81 | 130 | 5.2 | 11.3 | 0.00 | 0.00 | 0.00 | 86 | 1012.2 |
| 20260510142519 | 81 | 117 | 7.0 | 11.3 | 0.00 | 0.00 | 0.00 | 87 | 1012.2 |
| 20260510142020 | 81 | 128 | 7.0 | 10.4 | 0.00 | 0.00 | 0.00 | 87 | 1012.2 |
| 20260510141539 | 80 | 117 | 6.1 | 10.4 | 0.00 | 0.00 | 0.00 | 88 | 1012.1 |
| 20260510141020 | 80 | 155 | 6.1 | 11.3 | 0.00 | 0.00 | 0.00 | 89 | 1012.1 |
| 20260510140519 | 80 | 123 | 7.0 | 11.3 | 0.00 | 0.00 | 0.00 | 90 | 1012.0 |
| 20260510140035 | 79 | 157 | 6.1 | 10.4 | 0.00 | 0.00 | 0.00 | 91 | 1011.9 |
| 20260510135522 | 79 | 144 | 5.2 | 8.7 | 0.00 | 0.07 | 0.00 | 91 | 1012.0 |
| 20260510135020 | 79 | 154 | 5.2 | 9.6 | 0.00 | 0.07 | 0.00 | 92 | 1012.0 |
| 20260510134535 | 78 | 167 | 6.1 | 9.6 | 0.00 | 0.07 | 0.00 | 91 | 1011.9 |
| 20260510134023 | 78 | 162 | 6.1 | 9.6 | 0.00 | 0.07 | 0.00 | 91 | 1011.9 |
| 20260510133519 | 78 | 149 | 5.2 | 9.6 | 0.00 | 0.07 | 0.00 | 92 | 1011.9 |
| 20260510133035 | 78 | 136 | 5.2 | 10.4 | 0.00 | 0.07 | 0.00 | 92 | 1011.9 |
| 20260510132519 | 78 | 153 | 6.1 | 10.4 | 0.00 | 0.07 | 0.00 | 93 | 1011.8 |
| 20260510132020 | 77 | 144 | 7.0 | 10.4 | 0.00 | 0.07 | 0.00 | 93 | 1011.9 |
| 20260510131534 | 78 | 147 | 4.3 | 8.7 | 0.00 | 0.07 | 0.00 | 94 | 1011.8 |
| 20260510131025 | 77 | 128 | 5.2 | 8.7 | 0.00 | 0.07 | 0.00 | 94 | 1011.7 |
| 20260510130518 | 77 | 165 | 4.3 | 9.6 | 0.00 | 0.07 | 0.00 | 95 | 1011.7 |
| 20260510130035 | 77 | 126 | 5.2 | 9.6 | 0.00 | 0.07 | 0.00 | 95 | 1011.6 |
| 20260510125521 | 77 | 126 | 5.2 | 9.6 | 0.00 | 0.27 | 0.00 | 95 | 1011.5 |
| 20260510125021 | 77 | 114 | 5.2 | 8.7 | 0.00 | 0.27 | 0.00 | 95 | 1011.6 |
| 20260510124539 | 77 | 108 | 2.6 | 6.1 | 0.00 | 0.27 | 0.00 | 95 | 1011.5 |
| 20260510124019 | 76 | 130 | 1.7 | 3.5 | 0.00 | 0.27 | 0.00 | 95 | 1011.5 |
| 20260510123519 | 76 | 130 | 0.9 | 3.5 | 0.00 | 0.27 | 0.00 | 95 | 1011.5 |
| 20260510123036 | 76 | 130 | 1.7 | 3.5 | 0.00 | 0.27 | 0.00 | 95 | 1011.5 |
| 20260510122518 | 76 | 130 | 1.7 | 4.3 | 0.00 | 0.27 | 0.00 | 95 | 1011.4 |
| 20260510122020 | 76 | 130 | 1.7 | 7.0 | 0.00 | 0.27 | 0.00 | 95 | 1011.4 |
| 20260510121535 | 76 | 130 | 2.6 | 7.0 | 0.00 | 0.27 | 0.00 | 95 | 1011.3 |
| 20260510121019 | 76 | 130 | 2.6 | 7.0 | 0.00 | 0.27 | 0.00 | 95 | 1011.3 |
| 20260510120524 | 76 | 134 | 1.7 | 4.3 | 0.00 | 0.27 | 0.00 | 95 | 1011.2 |
| 20260510120035 | 76 | 134 | 1.7 | 7.8 | 0.00 | 0.27 | 0.00 | 95 | 1011.2 |
| 20260510115520 | 76 | 134 | 3.5 | 7.8 | 0.00 | 0.50 | 0.00 | 95 | 1011.0 |
| 20260510115019 | 76 | 145 | 2.6 | 7.0 | 0.00 | 0.50 | 0.00 | 95 | 1011.0 |
| 20260510114534 | 76 | 157 | 2.6 | 7.0 | 0.00 | 0.50 | 0.00 | 95 | 1011.0 |
| 20260510114019 | 76 | 153 | 4.3 | 6.1 | 0.00 | 0.50 | 0.00 | 95 | 1011.0 |
| 20260510113518 | 75 | 155 | 2.6 | 5.2 | 0.00 | 0.50 | 0.00 | 95 | 1011.1 |
| 20260510113042 | 75 | 145 | 1.7 | 5.2 | 0.00 | 0.50 | 0.00 | 95 | 1011.1 |
| 20260510112518 | 75 | 145 | 0.9 | 5.2 | 0.00 | 0.50 | 0.00 | 95 | 1011.0 |
| 20260510112019 | 75 | 122 | 1.7 | 4.3 | 0.00 | 0.50 | 0.00 | 95 | 1011.0 |
| 20260510111539 | 75 | 122 | 0.9 | 3.5 | 0.00 | 0.50 | 0.00 | 95 | 1011.0 |
| 20260510111017 | 75 | 122 | 0.9 | 2.6 | 0.00 | 0.50 | 0.00 | 95 | 1011.0 |
| 20260510110517 | 75 | 122 | 0.0 | 2.6 | 0.00 | 0.50 | 0.00 | 95 | 1010.9 |
| 20260510110049 | 75 | 122 | 0.0 | 3.5 | 0.00 | 0.50 | 0.00 | 95 | 1010.9 |
| 20260510105522 | 75 | 122 | 0.0 | 3.5 | 0.00 | 0.69 | 0.00 | 95 | 1011.0 |
| 20260510105018 | 75 | 122 | 1.7 | 3.5 | 0.00 | 0.69 | 0.00 | 95 | 1011.0 |
| 20260510104535 | 75 | 122 | 0.9 | 2.6 | 0.00 | 0.69 | 0.00 | 95 | 1011.1 |
| 20260510104017 | 75 | 122 | 0.9 | 2.6 | 0.00 | 0.69 | 0.00 | 95 | 1011.0 |
| 20260510103517 | 75 | 122 | 0.9 | 3.5 | 0.00 | 0.69 | 0.00 | 95 | 1010.9 |
| 20260510103039 | 75 | 122 | 0.9 | 5.2 | 0.00 | 0.69 | 0.00 | 95 | 1010.9 |
| 20260510102518 | 75 | 122 | 1.7 | 5.2 | 0.00 | 0.69 | 0.00 | 95 | 1010.9 |
| 20260510102020 | 75 | 122 | 2.6 | 6.1 | 0.00 | 0.69 | 0.00 | 95 | 1010.9 |
| 20260510101534 | 76 | 138 | 2.6 | 6.1 | 0.00 | 0.69 | 0.00 | 95 | 1010.9 |
| 20260510101018 | 76 | 130 | 1.7 | 5.2 | 0.00 | 0.69 | 0.00 | 95 | 1010.9 |
| 20260510100522 | 76 | 145 | 2.6 | 5.2 | 0.00 | 0.69 | 0.00 | 95 | 1010.9 |
| 20260510100048 | 75 | 125 | 1.7 | 6.1 | 0.00 | 0.69 | 0.00 | 95 | 1011.0 |
| 20260510095521 | 75 | 125 | 0.9 | 6.1 | 0.00 | 0.70 | 0.00 | 94 | 1011.0 |
| 20260510095021 | 75 | 132 | 0.9 | 6.1 | 0.00 | 0.70 | 0.00 | 94 | 1010.8 |
| 20260510094541 | 75 | 0 | 0.0 | 3.5 | 0.00 | 0.70 | 0.00 | 94 | 1010.9 |
| 20260510094022 | 75 | 132 | 0.0 | 3.5 | 0.00 | 0.70 | 0.00 | 94 | 1011.0 |
| 20260510093521 | 75 | 132 | 0.9 | 3.5 | 0.00 | 0.70 | 0.00 | 94 | 1011.0 |
| 20260510093039 | 75 | 0 | 0.9 | 2.6 | 0.00 | 0.70 | 0.00 | 94 | 1011.0 |
| 20260510092522 | 75 | 132 | 0.9 | 3.5 | 0.00 | 0.70 | 0.00 | 94 | 1010.8 |
| 20260510092021 | 75 | 132 | 1.7 | 3.5 | 0.00 | 0.70 | 0.00 | 94 | 1010.8 |
| 20260510091534 | 75 | 132 | 1.7 | 3.5 | 0.00 | 0.70 | 0.00 | 94 | 1010.8 |
| 20260510091020 | 75 | 132 | 0.9 | 2.6 | 0.00 | 0.70 | 0.00 | 94 | 1010.7 |
| 20260510090522 | 75 | 0 | 0.0 | 3.5 | 0.00 | 0.70 | 0.00 | 94 | 1010.6 |
| 20260510090035 | 75 | 0 | 0.9 | 3.5 | 0.00 | 0.70 | 0.00 | 94 | 1010.7 |
| 20260510085521 | 75 | 132 | 0.0 | 4.3 | 0.00 | 0.70 | 0.00 | 94 | 1010.6 |
| 20260510085021 | 75 | 132 | 0.9 | 4.3 | 0.00 | 0.70 | 0.00 | 94 | 1010.7 |
| 20260510084547 | 76 | 132 | 1.7 | 6.1 | 0.00 | 0.70 | 0.00 | 94 | 1010.7 |
| 20260510084020 | 76 | 132 | 1.7 | 6.1 | 0.00 | 0.70 | 0.00 | 94 | 1010.7 |
| 20260510083523 | 76 | 122 | 0.9 | 3.5 | 0.00 | 0.70 | 0.00 | 94 | 1010.7 |
| 20260510083039 | 76 | 140 | 0.9 | 4.3 | 0.00 | 0.70 | 0.00 | 94 | 1010.7 |
| 20260510082523 | 76 | 127 | 1.7 | 5.2 | 0.00 | 0.70 | 0.00 | 94 | 1010.8 |
| 20260510082021 | 75 | 149 | 2.6 | 6.1 | 0.00 | 0.70 | 0.00 | 94 | 1010.8 |
| 20260510081542 | 75 | 165 | 2.6 | 6.1 | 0.00 | 0.70 | 0.00 | 93 | 1010.8 |
| 20260510081022 | 76 | 153 | 2.6 | 7.0 | 0.00 | 0.70 | 0.00 | 93 | 1010.8 |
| 20260510080521 | 76 | 151 | 2.6 | 7.0 | 0.00 | 0.70 | 0.00 | 93 | 1010.8 |
| 20260510080052 | 76 | 138 | 2.6 | 7.0 | 0.00 | 0.70 | 0.00 | 93 | 1010.9 |
| 20260510075522 | 76 | 148 | 2.6 | 6.1 | 0.00 | 0.70 | 0.00 | 93 | 1010.9 |
| 20260510075022 | 76 | 135 | 2.6 | 6.1 | 0.00 | 0.70 | 0.00 | 93 | 1011.0 |
| 20260510074544 | 76 | 136 | 1.7 | 6.1 | 0.00 | 0.70 | 0.00 | 93 | 1011.0 |
| 20260510074021 | 76 | 136 | 3.5 | 7.0 | 0.00 | 0.70 | 0.00 | 93 | 1011.0 |
| 20260510073521 | 76 | 112 | 2.6 | 7.8 | 0.00 | 0.70 | 0.00 | 93 | 1011.0 |
| 20260510073049 | 76 | 136 | 3.5 | 7.8 | 0.00 | 0.70 | 0.00 | 93 | 1011.0 |
| 20260510072521 | 76 | 159 | 3.5 | 9.6 | 0.00 | 0.70 | 0.00 | 93 | 1011.0 |
| 20260510072022 | 76 | 154 | 4.3 | 9.6 | 0.00 | 0.70 | 0.00 | 92 | 1011.0 |
| 20260510071543 | 76 | 144 | 4.3 | 8.7 | 0.00 | 0.70 | 0.00 | 92 | 1010.9 |
| 20260510071021 | 76 | 147 | 4.3 | 7.8 | 0.00 | 0.70 | 0.00 | 92 | 1010.9 |
| 20260510070521 | 76 | 138 | 4.3 | 7.8 | 0.00 | 0.70 | 0.00 | 92 | 1011.1 |
| 20260510070048 | 76 | 142 | 4.3 | 9.6 | 0.00 | 0.70 | 0.00 | 92 | 1011.1 |
| 20260510065521 | 76 | 140 | 4.3 | 9.6 | 0.00 | 0.70 | 0.00 | 92 | 1011.1 |
| 20260510065021 | 76 | 130 | 6.1 | 9.6 | 0.00 | 0.70 | 0.00 | 92 | 1011.3 |
| 20260510064545 | 76 | 180 | 5.2 | 9.6 | 0.00 | 0.70 | 0.00 | 92 | 1011.3 |
| 20260510064021 | 76 | 141 | 4.3 | 8.7 | 0.00 | 0.70 | 0.00 | 92 | 1011.4 |
| 20260510063521 | 76 | 121 | 4.3 | 7.0 | 0.00 | 0.70 | 0.00 | 91 | 1011.5 |
| 20260510063038 | 76 | 115 | 3.5 | 9.6 | 0.00 | 0.70 | 0.00 | 91 | 1011.4 |
| 20260510062522 | 76 | 98 | 3.5 | 9.6 | 0.00 | 0.70 | 0.00 | 91 | 1011.5 |
| 20260510062021 | 76 | 134 | 3.5 | 8.7 | 0.00 | 0.70 | 0.00 | 91 | 1011.5 |
| 20260510061535 | 76 | 107 | 3.5 | 8.7 | 0.00 | 0.70 | 0.00 | 91 | 1011.5 |
| 20260510061024 | 76 | 119 | 5.2 | 8.7 | 0.00 | 0.70 | 0.00 | 91 | 1011.4 |
| 20260510060519 | 76 | 88 | 3.5 | 7.8 | 0.00 | 0.70 | 0.00 | 91 | 1011.5 |
| 20260510060047 | 76 | 86 | 3.5 | 7.0 | 0.00 | 0.70 | 0.00 | 91 | 1011.5 |
| 20260510055526 | 76 | 118 | 3.5 | 7.0 | 0.00 | 0.70 | 0.00 | 91 | 1011.4 |
| 20260510055022 | 76 | 105 | 2.6 | 7.0 | 0.00 | 0.70 | 0.00 | 91 | 1011.4 |
| 20260510054540 | 75 | 81 | 3.5 | 7.0 | 0.00 | 0.70 | 0.00 | 90 | 1011.4 |
| 20260510054022 | 75 | 108 | 3.5 | 6.1 | 0.00 | 0.70 | 0.00 | 90 | 1011.3 |
| 20260510053520 | 76 | 117 | 1.7 | 6.1 | 0.00 | 0.70 | 0.00 | 90 | 1011.2 |
| 20260510053039 | 76 | 121 | 2.6 | 8.7 | 0.00 | 0.70 | 0.00 | 90 | 1011.1 |
| 20260510052519 | 76 | 146 | 4.3 | 8.7 | 0.00 | 0.70 | 0.00 | 90 | 1011.1 |
| 20260510052022 | 76 | 129 | 3.5 | 9.6 | 0.00 | 0.70 | 0.00 | 90 | 1011.0 |
| 20260510051543 | 76 | 105 | 3.5 | 13.0 | 0.00 | 0.70 | 0.00 | 90 | 1010.9 |
| 20260510051023 | 76 | 165 | 6.1 | 13.0 | 0.00 | 0.70 | 0.00 | 90 | 1010.6 |
| 20260510050519 | 76 | 148 | 7.0 | 12.2 | 0.00 | 0.70 | 0.00 | 90 | 1010.5 |
| 20260510050037 | 76 | 151 | 7.0 | 10.4 | 0.00 | 0.70 | 0.00 | 89 | 1010.6 |
| 20260510045522 | 76 | 168 | 7.0 | 9.6 | 0.00 | 0.70 | 0.70 | 90 | 1010.6 |
| 20260510045019 | 76 | 161 | 6.1 | 8.7 | 0.00 | 0.70 | 0.70 | 89 | 1010.7 |
| 20260510044536 | 76 | 145 | 4.3 | 9.6 | 0.00 | 0.70 | 0.70 | 89 | 1010.7 |
| 20260510044019 | 76 | 148 | 4.3 | 9.6 | 0.00 | 0.70 | 0.70 | 89 | 1010.7 |
| 20260510043522 | 76 | 140 | 5.2 | 8.7 | 0.00 | 0.70 | 0.70 | 88 | 1010.7 |
| 20260510043034 | 76 | 145 | 4.3 | 8.7 | 0.00 | 0.70 | 0.70 | 88 | 1010.7 |
| 20260510042522 | 76 | 141 | 3.5 | 7.0 | 0.00 | 0.70 | 0.70 | 87 | 1010.8 |
| 20260510042020 | 76 | 156 | 2.6 | 7.0 | 0.00 | 0.70 | 0.70 | 87 | 1010.7 |
| 20260510041542 | 76 | 131 | 4.3 | 7.0 | 0.00 | 0.70 | 0.70 | 87 | 1010.7 |
| 20260510041023 | 76 | 122 | 3.5 | 7.0 | 0.00 | 0.70 | 0.70 | 86 | 1010.9 |
| 20260510040519 | 76 | 118 | 1.7 | 7.8 | 0.00 | 0.70 | 0.70 | 86 | 1010.8 |
| 20260510040040 | 76 | 131 | 3.5 | 8.7 | 0.00 | 0.70 | 0.70 | 86 | 1010.8 |
| 20260510035521 | 77 | 105 | 4.3 | 8.7 | 0.00 | 0.70 | 0.70 | 86 | 1010.7 |
| 20260510035019 | 77 | 104 | 4.3 | 8.7 | 0.00 | 0.70 | 0.70 | 85 | 1010.7 |
| 20260510034550 | 77 | 126 | 3.5 | 9.6 | 0.00 | 0.70 | 0.70 | 85 | 1010.6 |
| 20260510034022 | 77 | 115 | 6.1 | 9.6 | 0.00 | 0.70 | 0.70 | 85 | 1010.5 |
| 20260510033519 | 77 | 119 | 6.1 | 10.4 | 0.00 | 0.70 | 0.70 | 84 | 1010.5 |
| 20260510033051 | 77 | 113 | 6.1 | 10.4 | 0.00 | 0.70 | 0.70 | 84 | 1010.6 |
| 20260510032519 | 77 | 93 | 6.1 | 10.4 | 0.00 | 0.70 | 0.70 | 83 | 1010.5 |
| 20260510032019 | 77 | 97 | 7.0 | 10.4 | 0.00 | 0.70 | 0.70 | 83 | 1010.4 |
| 20260510031538 | 77 | 140 | 6.1 | 10.4 | 0.00 | 0.70 | 0.70 | 82 | 1010.4 |
| 20260510031019 | 77 | 113 | 5.2 | 11.3 | 0.00 | 0.70 | 0.70 | 82 | 1010.3 |
| 20260510030519 | 77 | 107 | 6.1 | 11.3 | 0.00 | 0.70 | 0.70 | 81 | 1010.2 |
| 20260510030034 | 77 | 118 | 7.0 | 11.3 | 0.00 | 0.70 | 0.70 | 81 | 1010.1 |
| 20260510025522 | 77 | 107 | 7.8 | 11.3 | 0.00 | 0.70 | 0.70 | 81 | 1010.0 |
| 20260510025020 | 77 | 119 | 4.3 | 9.6 | 0.00 | 0.70 | 0.70 | 81 | 1009.9 |
| 20260510024535 | 77 | 103 | 5.2 | 8.7 | 0.00 | 0.70 | 0.70 | 81 | 1009.7 |
| 20260510024017 | 77 | 109 | 5.2 | 8.7 | 0.00 | 0.70 | 0.70 | 81 | 1009.7 |
| 20260510023520 | 77 | 105 | 6.1 | 12.2 | 0.00 | 0.70 | 0.70 | 81 | 1009.6 |
| 20260510023039 | 77 | 107 | 7.0 | 12.2 | 0.00 | 0.70 | 0.70 | 81 | 1009.6 |
| 20260510022519 | 77 | 126 | 7.0 | 11.3 | 0.00 | 0.70 | 0.70 | 80 | 1009.4 |
| 20260510022019 | 77 | 148 | 3.5 | 8.7 | 0.00 | 0.70 | 0.70 | 81 | 1009.2 |
| 20260510021616 | 77 | 127 | 4.3 | 9.6 | 0.00 | 0.70 | 0.70 | 80 | 1009.2 |
| 20260510021019 | 77 | 129 | 4.3 | 9.6 | 0.00 | 0.70 | 0.70 | 80 | 1009.3 |
| 20260510020519 | 78 | 133 | 7.0 | 9.6 | 0.00 | 0.70 | 0.70 | 80 | 1009.0 |
| 20260510020035 | 78 | 129 | 6.1 | 12.2 | 0.00 | 0.70 | 0.70 | 79 | 1009.1 |
| 20260510015521 | 78 | 133 | 6.1 | 12.2 | 0.00 | 0.70 | 0.70 | 78 | 1009.1 |
| 20260510015018 | 78 | 128 | 5.2 | 12.2 | 0.00 | 0.70 | 0.70 | 77 | 1009.1 |
| 20260510014548 | 78 | 129 | 7.8 | 12.2 | 0.00 | 0.70 | 0.70 | 76 | 1009.2 |
| 20260510014020 | 78 | 98 | 7.0 | 10.4 | 0.00 | 0.70 | 0.70 | 74 | 1009.0 |
| 20260510013522 | 79 | 105 | 6.1 | 9.6 | 0.00 | 0.70 | 0.70 | 73 | 1008.8 |
| 20260510013035 | 79 | 146 | 5.2 | 9.6 | 0.00 | 0.70 | 0.70 | 72 | 1008.9 |
| 20260510012519 | 79 | 125 | 3.5 | 8.7 | 0.00 | 0.70 | 0.70 | 73 | 1008.8 |
| 20260510012019 | 79 | 129 | 3.5 | 9.6 | 0.00 | 0.70 | 0.70 | 73 | 1008.9 |
| 20260510011534 | 80 | 116 | 5.2 | 9.6 | 0.00 | 0.70 | 0.70 | 73 | 1008.7 |
| 20260510011017 | 80 | 130 | 4.3 | 10.4 | 0.00 | 0.70 | 0.70 | 73 | 1008.7 |
| 20260510010517 | 80 | 133 | 4.3 | 10.4 | 0.00 | 0.70 | 0.70 | 72 | 1008.9 |
| 20260510010052 | 81 | 123 | 6.1 | 10.4 | 0.00 | 0.70 | 0.70 | 71 | 1008.8 |
| 20260510005517 | 81 | 132 | 6.1 | 12.2 | 0.00 | 0.70 | 0.70 | 70 | 1008.8 |
| 20260510005019 | 81 | 111 | 7.8 | 12.2 | 0.00 | 0.70 | 0.70 | 69 | 1008.8 |
| 20260510004539 | 82 | 133 | 7.0 | 13.0 | 0.00 | 0.70 | 0.70 | 69 | 1008.9 |
| 20260510004019 | 82 | 126 | 7.8 | 13.0 | 0.00 | 0.70 | 0.70 | 67 | 1008.9 |
| 20260510003519 | 83 | 127 | 7.8 | 12.2 | 0.00 | 0.70 | 0.70 | 67 | 1008.9 |
| 20260510003036 | 83 | 116 | 7.8 | 13.0 | 0.00 | 0.70 | 0.70 | 66 | 1009.1 |
| 20260510002520 | 83 | 148 | 8.7 | 13.0 | 0.00 | 0.70 | 0.70 | 64 | 1009.1 |
| 20260510002019 | 84 | 135 | 9.6 | 13.0 | 0.00 | 0.70 | 0.70 | 64 | 1009.1 |
| 20260510001536 | 84 | 82 | 7.0 | 12.2 | 0.00 | 0.70 | 0.70 | 63 | 1009.0 |
| 20260510001019 | 84 | 99 | 6.1 | 11.3 | 0.00 | 0.70 | 0.70 | 63 | 1009.0 |
| 20260510000520 | 84 | 119 | 7.0 | 13.0 | 0.00 | 0.70 | 0.70 | 63 | 1008.9 |
| 20260510000036 | 84 | 116 | 7.0 | 13.9 | 0.00 | 0.70 | 0.70 | 64 | 1008.9 |
| 20260509235520 | 84 | 150 | 7.8 | 13.9 | 0.00 | 0.70 | 0.70 | 63 | 1009.0 |
| 20260509235019 | 85 | 110 | 9.6 | 13.9 | 0.00 | 0.70 | 0.70 | 62 | 1008.9 |
| 20260509234535 | 85 | 122 | 9.6 | 13.9 | 0.00 | 0.70 | 0.70 | 62 | 1008.9 |
| 20260509234018 | 85 | 114 | 9.6 | 13.9 | 0.00 | 0.70 | 0.70 | 61 | 1008.9 |
| 20260509233519 | 86 | 138 | 7.8 | 14.8 | 0.00 | 0.70 | 0.70 | 61 | 1008.9 |
| 20260509233039 | 86 | 137 | 9.6 | 14.8 | 0.00 | 0.70 | 0.70 | 59 | 1008.9 |
| 20260509232521 | 86 | 109 | 10.4 | 13.9 | 0.00 | 0.70 | 0.70 | 58 | 1009.0 |
| 20260509232019 | 87 | 137 | 8.7 | 13.9 | 0.00 | 0.70 | 0.70 | 59 | 1009.0 |
| 20260509231537 | 87 | 97 | 8.7 | 13.9 | 0.00 | 0.70 | 0.70 | 60 | 1009.0 |
| 20260509231019 | 87 | 130 | 8.7 | 13.9 | 0.00 | 0.70 | 0.70 | 56 | 1009.2 |
| 20260509230519 | 88 | 127 | 9.6 | 15.6 | 0.00 | 0.70 | 0.70 | 58 | 1009.1 |
| 20260509230044 | 88 | 119 | 9.6 | 15.6 | 0.00 | 0.70 | 0.70 | 58 | 1009.1 |
| 20260509225519 | 88 | 129 | 10.4 | 15.6 | 0.00 | 0.70 | 0.70 | 55 | 1009.1 |
| 20260509225018 | 88 | 113 | 11.3 | 15.6 | 0.00 | 0.70 | 0.70 | 58 | 1009.1 |
| 20260509224536 | 88 | 111 | 9.6 | 13.9 | 0.00 | 0.70 | 0.70 | 57 | 1009.0 |
| 20260509224019 | 87 | 101 | 8.7 | 17.4 | 0.00 | 0.70 | 0.70 | 58 | 1009.1 |
| 20260509223519 | 87 | 109 | 13.0 | 17.4 | 0.00 | 0.70 | 0.70 | 55 | 1009.0 |
| 20260509223038 | 88 | 90 | 10.4 | 15.6 | 0.00 | 0.70 | 0.70 | 56 | 1009.1 |
| 20260509222519 | 89 | 115 | 10.4 | 15.6 | 0.00 | 0.70 | 0.70 | 55 | 1009.2 |
| 20260509222019 | 89 | 91 | 8.7 | 13.9 | 0.00 | 0.70 | 0.70 | 60 | 1009.1 |
| 20260509221538 | 89 | 117 | 8.7 | 13.0 | 0.00 | 0.70 | 0.70 | 57 | 1009.1 |
| 20260509221021 | 90 | 96 | 9.6 | 13.9 | 0.00 | 0.70 | 0.70 | 55 | 1009.1 |
| 20260509220522 | 90 | 100 | 7.8 | 13.9 | 0.00 | 0.70 | 0.70 | 57 | 1009.1 |
| 20260509220035 | 89 | 117 | 10.4 | 13.9 | 0.00 | 0.70 | 0.70 | 55 | 1009.2 |
| 20260509215517 | 89 | 85 | 8.7 | 13.9 | 0.00 | 0.70 | 0.70 | 55 | 1009.0 |
| 20260509215019 | 90 | 98 | 9.6 | 13.9 | 0.00 | 0.70 | 0.70 | 54 | 1009.0 |
| 20260509214542 | 90 | 98 | 10.4 | 13.9 | 0.00 | 0.70 | 0.70 | 53 | 1009.0 |
| 20260509214019 | 91 | 129 | 8.7 | 12.2 | 0.00 | 0.70 | 0.70 | 53 | 1008.9 |
| 20260509213519 | 92 | 109 | 7.0 | 13.0 | 0.00 | 0.70 | 0.70 | 54 | 1009.0 |
| 20260509213040 | 91 | 140 | 7.8 | 13.0 | 0.00 | 0.70 | 0.70 | 53 | 1009.0 |
| 20260509212520 | 90 | 103 | 8.7 | 13.0 | 0.00 | 0.70 | 0.70 | 54 | 1009.0 |
| 20260509212022 | 90 | 124 | 7.8 | 13.0 | 0.00 | 0.70 | 0.70 | 53 | 1009.1 |
| 20260509211537 | 91 | 127 | 7.0 | 13.0 | 0.00 | 0.70 | 0.70 | 52 | 1009.0 |
| 20260509211019 | 91 | 132 | 7.8 | 12.2 | 0.00 | 0.70 | 0.70 | 50 | 1009.0 |
| 20260509210521 | 92 | 109 | 7.0 | 10.4 | 0.00 | 0.70 | 0.70 | 51 | 1009.0 |
| 20260509210040 | 91 | 82 | 6.1 | 10.4 | 0.00 | 0.70 | 0.70 | 54 | 1009.1 |
| 20260509205517 | 92 | 106 | 6.1 | 10.4 | 0.00 | 0.70 | 0.70 | 53 | 1009.2 |
| 20260509205019 | 92 | 99 | 6.1 | 10.4 | 0.00 | 0.70 | 0.70 | 52 | 1009.2 |
| 20260509204542 | 92 | 113 | 7.0 | 11.3 | 0.00 | 0.70 | 0.70 | 52 | 1009.1 |
| 20260509204020 | 92 | 84 | 7.8 | 13.0 | 0.00 | 0.70 | 0.70 | 54 | 1009.2 |
| 20260509203519 | 92 | 130 | 7.8 | 13.0 | 0.00 | 0.70 | 0.70 | 53 | 1009.2 |
| 20260509203039 | 93 | 122 | 5.2 | 10.4 | 0.00 | 0.70 | 0.70 | 55 | 1009.2 |
| 20260509202519 | 92 | 98 | 5.2 | 10.4 | 0.00 | 0.70 | 0.70 | 56 | 1009.3 |
| 20260509202021 | 92 | 129 | 7.0 | 10.4 | 0.00 | 0.70 | 0.70 | 55 | 1009.4 |
| 20260509201540 | 92 | 96 | 5.2 | 10.4 | 0.00 | 0.70 | 0.70 | 57 | 1009.4 |
| 20260509201019 | 92 | 101 | 7.0 | 10.4 | 0.00 | 0.70 | 0.70 | 57 | 1009.5 |
| 20260509200519 | 92 | 94 | 5.2 | 8.7 | 0.00 | 0.70 | 0.70 | 58 | 1009.4 |
| 20260509200039 | 92 | 70 | 4.3 | 8.7 | 0.00 | 0.70 | 0.70 | 58 | 1009.5 |
| 20260509195520 | 92 | 66 | 3.5 | 8.7 | 0.00 | 0.70 | 0.70 | 59 | 1009.4 |
| 20260509195019 | 92 | 69 | 4.3 | 8.7 | 0.00 | 0.70 | 0.70 | 59 | 1009.5 |
| 20260509194550 | 91 | 61 | 5.2 | 9.6 | 0.00 | 0.70 | 0.70 | 60 | 1009.7 |
| 20260509194019 | 90 | 22 | 5.2 | 12.2 | 0.00 | 0.70 | 0.70 | 61 | 1009.6 |
| 20260509193519 | 90 | 25 | 6.1 | 12.2 | 0.00 | 0.70 | 0.70 | 59 | 1009.6 |
| 20260509193035 | 90 | 32 | 7.8 | 12.2 | 0.00 | 0.70 | 0.70 | 59 | 1009.7 |
| 20260509192519 | 90 | 11 | 6.1 | 11.3 | 0.00 | 0.70 | 0.70 | 59 | 1009.6 |
| 20260509192019 | 91 | 26 | 8.7 | 11.3 | 0.00 | 0.70 | 0.70 | 58 | 1009.6 |
| 20260509191541 | 92 | 355 | 6.1 | 10.4 | 0.00 | 0.70 | 0.70 | 59 | 1009.5 |
| 20260509191023 | 92 | 95 | 3.5 | 7.0 | 0.00 | 0.70 | 0.70 | 59 | 1009.5 |
| 20260509190519 | 91 | 115 | 3.5 | 6.1 | 0.00 | 0.70 | 0.70 | 60 | 1009.4 |
| 20260509190037 | 91 | 126 | 2.6 | 5.2 | 0.00 | 0.70 | 0.70 | 57 | 1009.4 |
| 20260509185519 | 91 | 134 | 2.6 | 5.2 | 0.00 | 0.70 | 0.70 | 60 | 1009.4 |
| 20260509185019 | 91 | 140 | 1.7 | 5.2 | 0.00 | 0.70 | 0.70 | 58 | 1009.3 |
| 20260509184535 | 91 | 127 | 0.0 | 5.2 | 0.00 | 0.70 | 0.70 | 62 | 1009.4 |
| 20260509184017 | 91 | 127 | 2.6 | 5.2 | 0.00 | 0.70 | 0.70 | 60 | 1009.4 |
| 20260509183519 | 90 | 82 | 0.9 | 6.1 | 0.00 | 0.70 | 0.70 | 62 | 1009.3 |
| 20260509183036 | 90 | 58 | 1.7 | 7.8 | 0.00 | 0.70 | 0.70 | 63 | 1009.4 |
| 20260509182520 | 90 | 51 | 2.6 | 7.8 | 0.00 | 0.70 | 0.70 | 62 | 1009.5 |
| 20260509182017 | 90 | 77 | 3.5 | 8.7 | 0.00 | 0.70 | 0.70 | 65 | 1009.5 |
| 20260509181534 | 89 | 46 | 3.5 | 8.7 | 0.00 | 0.70 | 0.70 | 65 | 1009.5 |
| 20260509181017 | 88 | 31 | 5.2 | 8.7 | 0.00 | 0.70 | 0.70 | 67 | 1009.6 |
| 20260509180518 | 87 | 0 | 0.0 | 6.1 | 0.00 | 0.70 | 0.70 | 60 | 1009.7 |
| 20260509180051 | 87 | 192 | 2.6 | 6.1 | 0.00 | 0.70 | 0.70 | 58 | 1009.6 |
| 20260509175519 | 87 | 196 | 2.6 | 5.2 | 0.00 | 0.70 | 0.70 | 56 | 1009.6 |
| 20260509175019 | 87 | 0 | 0.9 | 5.2 | 0.00 | 0.70 | 0.70 | 56 | 1009.8 |
| 20260509174540 | 87 | 233 | 2.6 | 5.2 | 0.00 | 0.70 | 0.70 | 60 | 1009.7 |
| 20260509174019 | 87 | 250 | 0.9 | 5.2 | 0.00 | 0.70 | 0.70 | 61 | 1009.7 |
| 20260509173520 | 86 | 0 | 2.6 | 5.2 | 0.00 | 0.70 | 0.70 | 62 | 1009.7 |
| 20260509173051 | 86 | 251 | 1.7 | 6.1 | 0.00 | 0.70 | 0.70 | 62 | 1009.7 |
| 20260509172523 | 86 | 263 | 3.5 | 6.1 | 0.00 | 0.70 | 0.70 | 61 | 1009.7 |
| 20260509172021 | 85 | 0 | 1.7 | 5.2 | 0.00 | 0.70 | 0.70 | 64 | 1009.8 |
| 20260509171539 | 85 | 0 | 0.0 | 6.1 | 0.00 | 0.70 | 0.70 | 62 | 1009.9 |
| 20260509171020 | 84 | 244 | 0.9 | 6.1 | 0.00 | 0.70 | 0.70 | 65 | 1009.8 |
| 20260509170519 | 84 | 246 | 1.7 | 6.1 | 0.00 | 0.70 | 0.70 | 66 | 1010.0 |
| 20260509170035 | 84 | 277 | 0.9 | 5.2 | 0.00 | 0.70 | 0.70 | 66 | 1010.0 |
| 20260509165517 | 84 | 204 | 0.0 | 5.2 | 0.00 | 0.70 | 0.70 | 66 | 1010.0 |
| 20260509165019 | 83 | 264 | 0.0 | 5.2 | 0.00 | 0.70 | 0.70 | 70 | 1010.1 |
| 20260509164541 | 83 | 264 | 0.0 | 6.1 | 0.00 | 0.70 | 0.70 | 69 | 1010.3 |
| 20260509164017 | 82 | 0 | 0.0 | 6.1 | 0.00 | 0.70 | 0.70 | 71 | 1010.5 |
| 20260509163523 | 82 | 298 | 2.6 | 7.0 | 0.00 | 0.70 | 0.70 | 71 | 1010.6 |
| 20260509163036 | 82 | 296 | 3.5 | 7.0 | 0.00 | 0.70 | 0.70 | 70 | 1010.8 |
| 20260509162520 | 82 | 310 | 2.6 | 6.1 | 0.00 | 0.70 | 0.70 | 73 | 1010.6 |
| 20260509162018 | 81 | 0 | 2.6 | 7.8 | 0.00 | 0.70 | 0.70 | 76 | 1010.8 |
| 20260509161546 | 80 | 306 | 2.6 | 8.7 | 0.00 | 0.70 | 0.70 | 77 | 1010.8 |
| 20260509161019 | 79 | 329 | 3.5 | 8.7 | 0.00 | 0.70 | 0.70 | 78 | 1011.0 |
| 20260509160518 | 78 | 303 | 4.3 | 9.6 | 0.00 | 0.70 | 0.70 | 79 | 1011.0 |
| 20260509160037 | 78 | 269 | 5.2 | 9.6 | 0.00 | 0.70 | 0.70 | 79 | 1010.9 |
| 20260509155517 | 77 | 323 | 4.3 | 9.6 | 0.00 | 0.70 | 0.70 | 80 | 1010.8 |
| 20260509155017 | 77 | 274 | 3.5 | 8.7 | 0.00 | 0.70 | 0.70 | 81 | 1010.7 |
| 20260509154540 | 77 | 315 | 5.2 | 8.7 | 0.00 | 0.70 | 0.70 | 80 | 1010.3 |
| 20260509154018 | 76 | 280 | 4.3 | 7.8 | 0.00 | 0.70 | 0.70 | 81 | 1010.1 |